Regional Weather Roundup
Issued by NWS

Home | Current Version | Previous Version | Text Only | Print | Product List | Glossary On
Versions: 1 2 3 4 5 6 7 8 9 10 11 12 13 14 15 16 17 18 19 20 21 22 23 24 25 26 27 28 29 30 31 32 33 34 35 36 37 38 39 40 41 42 43 44 45 46 47 48 49 50
000
ASUS44 KOUN 291010
RWROK

WEATHER ROUNDUP FOR OKLAHOMA
NATIONAL WEATHER SERVICE NORMAN OK
500 AM CDT SUN MAY 29 2016

NOTE: "FAIR" INDICATES FEW OR NO CLOUDS BELOW 12,000 FEET WITH NO
      SIGNIFICANT WEATHER AND/OR OBSTRUCTIONS TO VISIBILITY.

OKZ001>007-009>012-014-015-017-291100-
NORTHWEST OKLAHOMA AND THE PANHANDLE

CITY           SKY/WX    TMP DP  RH WIND       PRES   REMARKS
GAGE           CLOUDY    59  56  89 NW7       30.08R
GUYMON         PTCLDY    56  48  74 SW5       30.10R
ENID/WOODRING  CLEAR     63  61  94 CALM      30.04R
$$

OKZ016-021>023-033>039-044-045-291100-
SOUTHWEST OKLAHOMA

CITY           SKY/WX    TMP DP  RH WIND       PRES   REMARKS
LAWTON/REGL    CLOUDY    65  62  90 CALM      30.06R
LAWTON/FT SILL CLOUDY    67  62  85 S3        30.05R
CLINTON        CLEAR     67  63  87 S9        30.07R
HOBART         CLEAR     66  61  84 S6        30.06R
ALTUS AFB      PTCLDY    65  60  85 E3        30.04R
$$

OKZ018>020-024>031-291100-
CENTRAL OKLAHOMA

CITY           SKY/WX    TMP DP  RH WIND       PRES   REMARKS
OKLAHOMA CITY  CLOUDY    70  69  97 S8        30.05R
OKC/WILEY POST MOCLDY    72  69  90 S10       30.05R
OKC/TINKER AFB CLOUDY    70  68  94 S8        30.05S
STILLWATER     PTCLDY    67  65  93 SE5       30.05R
GUTHRIE        PTCLDY    71  69  93 SE7       30.04S
$$

OKZ008-013-054>072-291100-
NORTHEAST OKLAHOMA

CITY           SKY/WX    TMP DP  RH WIND       PRES   REMARKS
TULSA          PTCLDY    70  68  93 SE3       30.04R
TULSA/JONES    CLOUDY    66  65  96 CALM      30.06R FOG
PONCA CITY     CLEAR     66  64  93 SE6       30.05R
BARTLESVILLE   CLEAR     60  59  96 CALM      30.07R FOG
MUSKOGEE       CLOUDY    66  64  93 CALM      30.06S
$$

OKZ032-040>043-046>053-073>077-291100-
SOUTH CENTRAL/SOUTHEAST OKLAHOMA

CITY           SKY/WX    TMP DP  RH WIND       PRES   REMARKS
ARDMORE/DWNTWN CLOUDY    68  66  94 CALM      30.03F
MCALESTER      CLOUDY    71  67  87 NE3       30.06R
$$





USA.gov is the U.S. government's official web portal to all federal, state and local government web resources and services.